{"data":{"norad_id":62568,"epoch":"2026-09-21T08:15:22.908096Z","epoch_age_seconds":98366,"freshness":"FRESH","line1":"1 62568U 25006Q   26264.34401514  .00013504  00000+0  49927-3 0  9998","line2":"2 62568  43.0027 267.7693 0001479 272.6616  87.4066 15.27585032 94783","mean_motion":15.27585032,"eccentricity":0.0001479,"inclination_deg":43.0027,"raan_deg":267.7693,"arg_perigee_deg":272.6616,"mean_anomaly_deg":87.4066,"bstar":0.00049927,"rev_number":9478,"period_min":94.266438190656,"perigee_km":482.01926126765,"apogee_km":484.04879565787,"semimajor_km":6861.1710284628,"source":"CELESTRAK","updated_at":"2026-09-22T09:00:49.628908Z"}}